FW3072 Weather Reports


Display with metric or nautical units.
time (UTC)temp
F
wind
direction
speed
MPH
gust
MPH
rain 1hr
in
rain 24hr
in
rain mn
in
humidity
%
barometer
mb
20260504181202 69 234 4.0 11.0 0.00 0.00 0.00 54 1004.5
20260504180202 68 226 6.0 15.0 0.00 0.00 0.00 55 1004.6
20260504175202 68 236 5.0 15.0 0.00 0.00 0.00 53 1004.8
20260504174202 68 215 5.0 9.0 0.00 0.00 0.00 56 1004.9
20260504173202 67 252 4.0 20.0 0.00 0.00 0.00 57 1005.0
20260504172202 66 224 3.0 16.0 0.00 0.00 0.00 56 1005.1
20260504171202 66 247 6.0 11.0 0.00 0.00 0.00 57 1005.2
20260504170202 65 241 4.0 16.0 0.00 0.00 0.00 59 1005.2
20260504160202 63 229 5.0 14.0 0.00 0.00 0.00 58 1006.0
20260504150203 61 227 7.0 15.0 0.00 0.00 0.00 58 1006.2
20260504141203 59 232 6.0 16.0 0.00 0.00 0.00 59 1006.0
20260504140224 59 221 6.0 15.0 0.00 0.00 0.00 59 1006.1
20260504130202 57 212 3.0 14.0 0.00 0.00 0.00 61 1006.5
20260504120203 54 200 3.0 9.0 0.00 0.00 0.00 63 1006.4
20260504110202 50 217 2.0 4.0 0.00 0.00 0.00 67 1006.7
20260504100202 50 258 1.0 3.0 0.00 0.00 0.00 65 1006.5
20260504081223 47 247 1.0 6.0 0.00 0.00 0.00 74 1007.4
20260504080202 47 199 2.0 4.0 0.00 0.00 0.00 77 1007.4
20260504070204 49 215 3.0 6.0 0.00 0.00 0.00 76 1008.1
20260504060202 50 173 3.0 8.0 0.00 0.00 0.00 73 1008.6
20260504050202 51 240 5.0 19.0 0.00 0.00 0.00 69 1009.0
20260504045202 51 234 3.0 14.0 0.00 0.00 0.00 68 1009.1
20260504044225 51 270 4.0 10.0 0.00 0.00 0.00 66 1009.1
20260504043202 51 265 5.0 12.0 0.00 0.00 0.00 65 1009.2
20260504042201 51 263 5.0 17.0 0.00 0.00 0.00 64 1009.1
20260504041202 51 264 3.0 15.0 0.00 0.00 0.00 62 1009.1
20260504040202 52 261 3.0 9.0 0.00 0.00 0.00 61 1009.0
20260504035202 52 281 7.0 19.0 0.00 0.00 0.00 60 1009.0
20260504034202 53 257 3.0 8.0 0.00 0.00 0.00 60 1008.9
20260504033202 53 263 3.0 8.0 0.00 0.00 0.00 59 1009.0
20260504032202 54 235 5.0 13.0 0.00 0.00 0.00 57 1009.1
20260504031202 54 242 4.0 10.0 0.00 0.00 0.00 57 1009.1
20260504030201 54 268 5.0 12.0 0.00 0.00 0.00 56 1009.1
20260504025224 54 245 4.0 17.0 0.00 0.00 0.00 56 1009.1
20260504024202 54 274 6.0 14.0 0.00 0.00 0.00 56 1009.1
20260504023203 54 262 6.0 16.0 0.00 0.00 0.00 56 1009.2
20260504022223 53 260 6.0 15.0 0.00 0.00 0.00 57 1009.1
20260504021202 53 233 1.0 12.0 0.00 0.00 0.00 60 1009.2
20260504020202 53 231 2.0 14.0 0.00 0.00 0.00 60 1009.3
20260504015204 53 242 3.0 12.0 0.00 0.00 0.00 59 1009.3
20260504014225 53 215 3.0 9.0 0.00 0.00 0.00 59 1009.2
20260504013202 53 256 4.0 12.0 0.00 0.00 0.00 60 1009.2
20260504012203 53 266 5.0 18.0 0.00 0.00 0.00 59 1009.3
20260504011202 53 228 5.0 20.0 0.00 0.00 0.00 58 1009.3
20260504010202 53 219 4.0 16.0 0.00 0.00 0.00 58 1009.3
20260504005202 53 251 3.0 19.0 0.00 0.00 0.00 60 1009.2
20260504004202 53 278 5.0 16.0 0.00 0.00 0.00 60 1009.2
20260504003202 52 277 4.0 14.0 0.00 0.00 0.00 60 1009.2
20260504002202 52 257 4.0 12.0 0.00 0.00 0.00 62 1009.2
20260504000223 53 233 3.0 9.0 0.00 0.00 0.00 61 1009.3
20260503235202 53 261 2.0 9.0 0.00 0.00 0.00 61 1009.4
20260503234202 53 246 3.0 12.0 0.00 0.00 0.00 62 1009.4
20260503233202 53 255 3.0 10.0 0.00 0.00 0.00 62 1009.5
20260503232202 53 270 5.0 16.0 0.00 0.00 0.00 64 1009.5
20260503231202 53 286 4.0 11.0 0.00 0.00 0.00 66 1009.7
20260503230202 53 288 5.0 9.0 0.00 0.00 0.00 66 1009.8
20260503225224 53 284 5.0 15.0 0.00 0.00 0.00 65 1009.8
20260503224202 53 268 4.0 11.0 0.00 0.00 0.00 65 1009.8
20260503223204 53 288 6.0 12.0 0.00 0.00 0.00 63 1009.9
20260503222223 52 270 7.0 16.0 0.00 0.00 0.00 64 1009.8
20260503221202 52 264 6.0 14.0 0.00 0.00 0.00 66 1009.9
20260503220201 52 282 7.0 18.0 0.00 0.00 0.00 65 1009.8
20260503215202 52 260 8.0 16.0 0.00 0.00 0.00 65 1009.7
20260503214202 52 264 5.0 21.0 0.00 0.00 0.00 65 1009.6
20260503213202 52 270 4.0 12.0 0.00 0.00 0.00 65 1009.5
20260503211203 52 271 6.0 18.0 0.00 0.00 0.00 65 1009.4
20260503210202 51 258 4.0 15.0 0.00 0.00 0.00 65 1009.5
20260503205201 51 244 4.0 15.0 0.00 0.00 0.00 64 1009.7
20260503203203 52 219 4.0 13.0 0.00 0.00 0.00 63 1009.8
20260503202202 52 270 5.0 21.0 0.00 0.00 0.00 63 1009.9
20260503201203 53 237 4.0 15.0 0.00 0.00 0.00 62 1010.0
20260503200204 53 263 6.0 13.0 0.00 0.00 0.00 61 1010.2
20260503195205 54 245 5.0 19.0 0.00 0.00 0.00 61 1010.4
20260503194202 54 218 4.0 13.0 0.00 0.00 0.00 60 1010.4
20260503193223 54 256 6.0 16.0 0.00 0.00 0.00 60 1010.6
20260503192203 53 269 6.0 15.0 0.00 0.00 0.00 60 1010.9
20260503191202 53 241 6.0 17.0 0.00 0.00 0.00 59 1011.0
20260503190203 53 281 9.0 19.0 0.00 0.00 0.00 58 1011.1
20260503185203 54 253 6.0 23.0 0.00 0.00 0.00 56 1011.2
20260503184202 54 277 7.0 19.0 0.00 0.00 0.00 56 1011.3
20260503183202 54 254 8.0 18.0 0.00 0.00 0.00 55 1011.5
20260503182205 55 238 5.0 14.0 0.00 0.00 0.00 52 1011.6